Weather in Pervomayskiy

Russia / Chelyabinsk Oblast     54°51′59″N   61°10′13″E
temp.,
°C
wind,
m/s
gust,
m/s
humid.,
%
clouds,
%
prec.,
mm/h
press.,
hPa
HPBL,
m
14 may, fri
fri1423:00+19nne11465 0.0 102511
02:00+17se11475 0.0 102511
05:00+16w115023 0.0 102611
08:00+21sse12415 0.0 1026194
11:00+26s34320 0.0 1026970
14:00+29sw33270 0.0 10252654
17:00+29sw35255 0.0 10243135
20:00+25sw333954 0.0 102326
15 may, sat
sat1523:00+20w11451 0.0 102311
02:00+18nw22500 0.0 102317
05:00+16nnw34634 0.0 102449
08:00+22wnw22475 0.0 1024202
11:00+27w34295 0.0 10231323
14:00+29w45245 0.0 10222184
17:00+30wsw372486 0.0 10213233
20:00+24nw364176 0.0 1021102
16 may, sun
sun1623:00+20wnw474519 0.0 1021100
02:00+18wnw335260 0.0 102142
05:00+17w33559 0.0 102234
08:00+22w344543 0.0 1023204
11:00+28w333072 0.0 10221021
14:00+31w442326 0.0 10212648
17:00+31wsw45225 0.0 10202925
20:00+24nw610415 0.0 1020237
17 may, mon
mon1723:00+19nw22485 0.0 102018
02:00+18wnw33535 0.0 102026
05:00+19wnw224915 0.0 102114
08:00+24w34421 0.0 1021209
11:00+29w35260 0.0 10202129
14:00+31wsw56205 0.0 10183847
17:00+28w5829100 0.1 10171102
20:00+21ne125361 1.3 101834
18 may, tue
tue1823:00+19wnw485298 1.4 1018101
02:00+18w485782 0.0 1017104
05:00+17wnw366589 0.0 101787
08:00+22wnw5954100 0.0 1017364
11:00+27wnw573891 0.0 10161497
14:00+29nw69297 0.0 10153228
17:00+28nnw8113149 0.0 10152927
20:00+22nnw6114695 0.1 1016298